Wetterdaten: aktuell Mittwoch, 16.10.2019 09:20
Datum Zeit Temp. A. Feuchte A. Luftdruck Regen Wind Richtung Richtung Sonnenschein T Regen Solar Taupunkt Windchill Windben Empfang
16.10.2019 09:20 8,1 C 94 % 1016,4 hPa 0,0 l/m 3,4 km/h (1 Bft) S 180 0 min 0 min 59 W/m 7,2 C 8,1 C 6,4 km/h (2 Bft) 96 %
16.10.2019 09:19 8,1 C 94 % 1016,5 hPa 0,0 l/m 5,2 km/h (1 Bft) S 180 0 min 0 min 58 W/m 7,2 C 8,1 C 8,0 km/h (2 Bft) 96 %
16.10.2019 09:18 8,1 C 94 % 1016,5 hPa 0,0 l/m 5,0 km/h (1 Bft) S 180 0 min 0 min 56 W/m 7,2 C 8,1 C 6,4 km/h (2 Bft) 96 %
16.10.2019 09:17 8,1 C 94 % 1016,5 hPa 0,0 l/m 1,3 km/h (1 Bft) S 180 0 min 0 min 56 W/m 7,2 C 8,1 C 4,8 km/h (1 Bft) 100 %
16.10.2019 09:16 8,1 C 94 % 1016,4 hPa 0,0 l/m 1,3 km/h (1 Bft) S 180 0 min 0 min 56 W/m 7,2 C 8,1 C 3,2 km/h (1 Bft) 91 %
16.10.2019 09:15 8,1 C 94 % 1016,3 hPa 0,0 l/m 1,2 km/h (1 Bft) S 180 0 min 0 min 56 W/m 7,2 C 8,1 C 3,2 km/h (1 Bft) 100 %
16.10.2019 09:14 8,1 C 94 % 1016,3 hPa 0,0 l/m 1,2 km/h (1 Bft) S 180 0 min 0 min 56 W/m 7,2 C 8,1 C 3,2 km/h (1 Bft) 91 %
16.10.2019 09:13 8,0 C 94 % 1016,3 hPa 0,0 l/m 3,0 km/h (1 Bft) S 180 0 min 0 min 54 W/m 7,1 C 8,0 C 4,8 km/h (1 Bft) 91 %
16.10.2019 09:12 8,0 C 94 % 1016,2 hPa 0,0 l/m 0,6 km/h (0 Bft) S 180 0 min 0 min 54 W/m 7,1 C 8,0 C 3,2 km/h (1 Bft) 92 %
16.10.2019 09:11 8,0 C 94 % 1016,2 hPa 0,0 l/m 0,6 km/h (0 Bft) S 180 0 min 0 min 54 W/m 7,1 C 8,0 C 1,6 km/h (1 Bft) 91 %
16.10.2019 09:10 8,0 C 94 % 1016,2 hPa 0,0 l/m 1,3 km/h (1 Bft) S 180 0 min 0 min 54 W/m 7,1 C 8,0 C 3,2 km/h (1 Bft) 75 %
16.10.2019 09:09 8,0 C 94 % 1016,2 hPa 0,0 l/m 1,9 km/h (1 Bft) S 180 0 min 0 min 54 W/m 7,1 C 8,0 C 3,2 km/h (1 Bft) 91 %
16.10.2019 09:08 7,9 C 94 % 1016,2 hPa 0,0 l/m 0,0 km/h (0 Bft) S 180 0 min 0 min 54 W/m 7,0 C 7,9 C 0,0 km/h (0 Bft) 83 %
16.10.2019 09:07 8,0 C 94 % 1016,2 hPa 0,0 l/m 0,0 km/h (0 Bft) S 180 0 min 0 min 52 W/m 7,1 C 8,0 C 0,0 km/h (0 Bft) 92 %
16.10.2019 09:06 7,9 C 94 % 1016,2 hPa 0,0 l/m 0,5 km/h (0 Bft) S 180 0 min 0 min 52 W/m 7,0 C 7,9 C 1,6 km/h (1 Bft) 91 %
16.10.2019 09:05 7,9 C 94 % 1016,2 hPa 0,0 l/m 0,5 km/h (0 Bft) S 180 0 min 0 min 52 W/m 7,0 C 7,9 C 1,6 km/h (1 Bft) 88 %
16.10.2019 09:04 7,9 C 94 % 1016,2 hPa 0,0 l/m 0,2 km/h (0 Bft) S 180 0 min 0 min 52 W/m 7,0 C 7,9 C 1,6 km/h (1 Bft) 91 %
16.10.2019 09:03 7,9 C 94 % 1016,2 hPa 0,0 l/m 3,2 km/h (1 Bft) S 180 0 min 0 min 52 W/m 7,0 C 7,9 C 4,8 km/h (1 Bft) 83 %
16.10.2019 09:02 7,9 C 94 % 1016,2 hPa 0,0 l/m 3,4 km/h (1 Bft) S 180 0 min 0 min 52 W/m 7,0 C 7,9 C 9,7 km/h (2 Bft) 100 %
16.10.2019 09:01 7,9 C 94 % 1016,2 hPa 0,0 l/m 0,1 km/h (0 Bft) S 180 0 min 0 min 52 W/m 7,0 C 7,9 C 1,6 km/h (1 Bft) 94 %
16.10.2019 09:00 7,9 C 94 % 1016,2 hPa 0,0 l/m 0,7 km/h (0 Bft) S 180 0 min 0 min 52 W/m 7,0 C 7,9 C 1,6 km/h (1 Bft) 79 %
16.10.2019 08:59 7,9 C 94 % 1016,2 hPa 0,0 l/m 1,6 km/h (1 Bft) S 180 0 min 0 min 52 W/m 7,0 C 7,9 C 3,2 km/h (1 Bft) 91 %
16.10.2019 08:58 7,9 C 94 % 1016,1 hPa 0,0 l/m 0,6 km/h (0 Bft) S 180 0 min 0 min 52 W/m 7,0 C 7,9 C 1,6 km/h (1 Bft) 88 %
16.10.2019 08:57 7,9 C 94 % 1016,1 hPa 0,0 l/m 1,0 km/h (0 Bft) S 180 0 min 0 min 52 W/m 7,0 C 7,9 C 3,2 km/h (1 Bft) 96 %
16.10.2019 08:56 7,9 C 94 % 1016,1 hPa 0,0 l/m 0,0 km/h (0 Bft) S 180 0 min 0 min 52 W/m 7,0 C 7,9 C 0,0 km/h (0 Bft) 100 %
16.10.2019 08:55 7,9 C 94 % 1016,1 hPa 0,0 l/m 0,8 km/h (0 Bft) S 180 0 min 0 min 51 W/m 7,0 C 7,9 C 3,2 km/h (1 Bft) 100 %
16.10.2019 08:54 7,9 C 94 % 1016,1 hPa 0,0 l/m 2,0 km/h (1 Bft) S 180 0 min 0 min 49 W/m 7,0 C 7,9 C 3,2 km/h (1 Bft) 96 %
16.10.2019 08:53 7,9 C 94 % 1016,1 hPa 0,0 l/m 1,5 km/h (1 Bft) S 180 0 min 0 min 49 W/m 7,0 C 7,9 C 3,2 km/h (1 Bft) 100 %
16.10.2019 08:52 7,8 C 94 % 1016,1 hPa 0,0 l/m 3,1 km/h (1 Bft) S 180 0 min 0 min 47 W/m 6,9 C 7,8 C 4,8 km/h (1 Bft) 87 %
16.10.2019 08:51 7,8 C 94 % 1016,1 hPa 0,0 l/m 2,7 km/h (1 Bft) S 180 0 min 0 min 47 W/m 6,9 C 7,8 C 4,8 km/h (1 Bft) 92 %
16.10.2019 08:50 7,8 C 94 % 1016,2 hPa 0,0 l/m 1,9 km/h (1 Bft) S 180 0 min 0 min 45 W/m 6,9 C 7,8 C 3,2 km/h (1 Bft) 96 %
16.10.2019 08:49 7,8 C 94 % 1016,1 hPa 0,0 l/m 2,0 km/h (1 Bft) S 180 0 min 0 min 47 W/m 6,9 C 7,8 C 4,8 km/h (1 Bft) 83 %
16.10.2019 08:48 7,8 C 94 % 1016,2 hPa 0,0 l/m 2,3 km/h (1 Bft) S 180 0 min 0 min 49 W/m 6,9 C 7,8 C 3,2 km/h (1 Bft) 96 %
16.10.2019 08:47 7,8 C 94 % 1016,2 hPa 0,0 l/m 1,1 km/h (1 Bft) S 180 0 min 0 min 51 W/m 6,9 C 7,8 C 3,2 km/h (1 Bft) 91 %
16.10.2019 08:46 7,8 C 94 % 1016,1 hPa 0,0 l/m 0,0 km/h (0 Bft) S 180 0 min 0 min 52 W/m 6,9 C 7,8 C 0,0 km/h (0 Bft) 88 %
16.10.2019 08:45 7,8 C 94 % 1016,2 hPa 0,0 l/m 0,5 km/h (0 Bft) S 180 0 min 0 min 52 W/m 6,9 C 7,8 C 1,6 km/h (1 Bft) 100 %
16.10.2019 08:44 7,8 C 94 % 1016,2 hPa 0,0 l/m 0,5 km/h (0 Bft) S 180 0 min 0 min 54 W/m 6,9 C 7,8 C 1,6 km/h (1 Bft) 92 %
16.10.2019 08:43 7,8 C 94 % 1016,2 hPa 0,0 l/m 3,2 km/h (1 Bft) S 180 0 min 0 min 58 W/m 6,9 C 7,8 C 6,4 km/h (2 Bft) 100 %
16.10.2019 08:42 7,8 C 94 % 1016,2 hPa 0,0 l/m 0,7 km/h (0 Bft) S 180 0 min 0 min 58 W/m 6,9 C 7,8 C 1,6 km/h (1 Bft) 82 %
16.10.2019 08:41 7,7 C 94 % 1016,2 hPa 0,0 l/m 0,0 km/h (0 Bft) S 180 0 min 0 min 59 W/m 6,8 C 7,7 C 0,0 km/h (0 Bft) 92 %
16.10.2019 08:40 7,7 C 94 % 1016,2 hPa 0,0 l/m 0,0 km/h (0 Bft) S 180 0 min 0 min 59 W/m 6,8 C 7,7 C 0,0 km/h (0 Bft) 91 %
16.10.2019 08:39 7,7 C 94 % 1016,2 hPa 0,0 l/m 0,0 km/h (0 Bft) S 180 0 min 0 min 61 W/m 6,8 C 7,7 C 0,0 km/h (0 Bft) 96 %
16.10.2019 08:38 7,7 C 94 % 1016,2 hPa 0,0 l/m 0,0 km/h (0 Bft) S 180 0 min 0 min 61 W/m 6,8 C 7,7 C 0,0 km/h (0 Bft) 91 %
16.10.2019 08:37 7,7 C 94 % 1016,2 hPa 0,0 l/m 0,0 km/h (0 Bft) S 180 0 min 0 min 66 W/m 6,8 C 7,7 C 0,0 km/h (0 Bft) 96 %
16.10.2019 08:36 7,7 C 94 % 1016,2 hPa 0,0 l/m 0,1 km/h (0 Bft) S 180 0 min 0 min 70 W/m 6,8 C 7,7 C 1,6 km/h (1 Bft) 91 %
16.10.2019 08:35 7,7 C 94 % 1016,1 hPa 0,0 l/m 0,7 km/h (0 Bft) S 180 0 min 0 min 72 W/m 6,8 C 7,7 C 1,6 km/h (1 Bft) 100 %
16.10.2019 08:34 7,7 C 94 % 1016,1 hPa 0,0 l/m 1,3 km/h (1 Bft) S 180 0 min 0 min 72 W/m 6,8 C 7,7 C 3,2 km/h (1 Bft) 100 %
16.10.2019 08:33 7,7 C 94 % 1016,1 hPa 0,0 l/m 1,6 km/h (1 Bft) S 180 1 min 0 min 72 W/m 6,8 C 7,7 C 3,2 km/h (1 Bft) 96 %
16.10.2019 08:32 7,7 C 94 % 1016,1 hPa 0,0 l/m 1,1 km/h (1 Bft) S 180 1 min 0 min 72 W/m 6,8 C 7,7 C 1,6 km/h (1 Bft) 100 %
16.10.2019 08:31 7,7 C 94 % 1016,1 hPa 0,0 l/m 2,3 km/h (1 Bft) S 180 0 min 0 min 68 W/m 6,8 C 7,7 C 3,2 km/h (1 Bft) 96 %
16.10.2019 08:30 7,7 C 94 % 1016,0 hPa 0,0 l/m 2,5 km/h (1 Bft) S 180 0 min 0 min 65 W/m 6,8 C 7,7 C 3,2 km/h (1 Bft) 96 %
16.10.2019 08:29 7,7 C 94 % 1016,1 hPa 0,0 l/m 2,1 km/h (1 Bft) S 180 0 min 0 min 65 W/m 6,8 C 7,7 C 3,2 km/h (1 Bft) 92 %
16.10.2019 08:28 7,6 C 94 % 1016,1 hPa 0,0 l/m 2,1 km/h (1 Bft) S 180 1 min 0 min 65 W/m 6,7 C 7,6 C 3,2 km/h (1 Bft) 87 %
16.10.2019 08:27 7,6 C 94 % 1016,0 hPa 0,0 l/m 0,7 km/h (0 Bft) S 180 1 min 0 min 63 W/m 6,7 C 7,6 C 1,6 km/h (1 Bft) 96 %
16.10.2019 08:26 7,6 C 94 % 1016,0 hPa 0,0 l/m 0,2 km/h (0 Bft) S 180 1 min 0 min 63 W/m 6,7 C 7,6 C 1,6 km/h (1 Bft) 96 %
16.10.2019 08:25 7,6 C 94 % 1016,0 hPa 0,0 l/m 0,0 km/h (0 Bft) S 180 1 min 0 min 61 W/m 6,7 C 7,6 C 0,0 km/h (0 Bft) 79 %
16.10.2019 08:24 7,6 C 94 % 1016,0 hPa 0,0 l/m 0,3 km/h (0 Bft) S 180 1 min 0 min 63 W/m 6,7 C 7,6 C 1,6 km/h (1 Bft) 91 %
16.10.2019 08:23 7,6 C 94 % 1016,0 hPa 0,0 l/m 0,7 km/h (0 Bft) S 180 1 min 0 min 63 W/m 6,7 C 7,6 C 1,6 km/h (1 Bft) 87 %
16.10.2019 08:22 7,6 C 94 % 1016,1 hPa 0,0 l/m 0,0 km/h (0 Bft) S 180 1 min 0 min 63 W/m 6,7 C 7,6 C 0,0 km/h (0 Bft) 88 %
16.10.2019 08:21 7,6 C 94 % 1016,0 hPa 0,0 l/m 0,8 km/h (0 Bft) S 180 1 min 0 min 65 W/m 6,7 C 7,6 C 1,6 km/h (1 Bft) 91 %
16.10.2019 08:20 7,6 C 94 % 1015,9 hPa 0,0 l/m 1,3 km/h (1 Bft) S 180 1 min 0 min 63 W/m 6,7 C 7,6 C 1,6 km/h (1 Bft) 88 %
_ Min-Zeit 07:54 14:00 16:00 - 10:00 - - - - - 07:50 05:50 04:19 06:30
Minimum _ 7,4 C 64 % 1005,4 hPa - 0,0 km/h (0 Bft) - - - - - 6,3 C 5,0 C 0,0 km/h (0 Bft) 61 %
_ Max-Zeit 15:40 10:20 09:17 20:50 03:09 - - 10:10 23:21 13:40 16:30 15:40 16:10 10:00
Maximum _ 19,1 C 96 % 1016,5 hPa 0,8 l/m 14,0 km/h
S (3 Bft)
- - 10 min 11 min 717 W/m 13,1 C 19,1 C 30,6 km/h
W-NW (5 Bft)
100 %
Durchschnitt _ 12,4 C 85 % 1010,3 hPa #4,6 l/m 4,6 km/h (1 Bft) S - #39 min. #2 min. 9 W/m 9,8 C 12,1 C 10,1 km/h (2 Bft) 97 %